Weather History for KCDR - April, 2014

Change the Weather History Date:

Sunday, April 13, 2014

  Actual Average Record
Temperature  
Mean Temperature 32 °F 44 °F  
Max Temperature 38 °F 59 °F 85 °F (2006)
Min Temperature 26 °F 29 °F 11 °F (1997)
Degree Days  
Heating Degree Days 33 21  
Month to date heating degree days 284 299  
Since 1 July heating degree days 6656 6456  
Cooling Degree Days 0 0  
Month to date cooling degree days 0 0  
Year to date cooling degree days 0 0  
Moisture  
Dew Point 26 °F    
Average Humidity 73    
Maximum Humidity 92    
Minimum Humidity 54    
Precipitation  
Precipitation 0.04 in 0.07 in 0.88 in (1967)
Month to date precipitation 0.44 0.69  
Year to date precipitation 2.02 2.89  
Sea Level Pressure  
Sea Level Pressure 30.11 in    
Wind  
Wind Speed 17 mph (NNE)    
Max Wind Speed 28 mph    
Max Gust Speed 33 mph    
Visibility 6 miles    
Events Fog , Rain , Snow    
T = Trace of Precipitation, MM = Missing Value Source: NWS Daily Summary

Daily Weather History Graph

Daily Weather History Graph

Search for Another Location

Airport or City:

Trip Planner

Search our weather history database for the weather conditions in past years. The results will help you decide how hot, cold, wet, or windy it might be!

Date:

Astronomy

Apr. 13, 2014 Rise Set
Actual Time 6:14 AM MDT 7:32 PM MDT
Civil Twilight 5:44 AM MDT 8:01 PM MDT
Nautical Twilight 5:09 AM MDT 8:37 PM MDT
Astronomical Twilight 4:32 AM MDT 9:14 PM MDT
Moon 6:10 PM MDT (4/13) 5:16 AM MDT (4/13)
Length of Visible Light 14h 17m
Length of Day
13h 18m
Waxing Gibbous, 97% of the Moon is Illuminated
Apr 13
Waxing Gibbous
Apr 15
Full
Apr 22
Last Quarter
Apr 29
New
May 6
First Quarter

Hourly Weather History & Observations

Time (MDT) Temp. Windchill Dew Point Humidity Pressure Visibility Wind Dir Wind Speed Gust Speed Precip Events Conditions
12:04 AM 39.2 °F 30.2 °F 37.4 °F 93% 29.91 in 6.0 mi NE 17.3 mph - 0.01 in Rain Light Rain
12:53 AM 37.9 °F 28.9 °F 36.0 °F 93% 29.94 in 7.0 mi NE 16.1 mph 21.9 mph 0.05 in Rain Light Rain
1:53 AM 37.9 °F 29.2 °F 35.1 °F 89% 29.95 in 10.0 mi NNE 15.0 mph 23.0 mph 0.01 in   Overcast
2:07 AM 37.4 °F 27.8 °F 33.8 °F 87% 29.92 in 10.0 mi NE 17.3 mph 27.6 mph 0.01 in   Overcast
2:37 AM 37.4 °F 27.8 °F 33.8 °F 87% 29.93 in 10.0 mi NNE 17.3 mph 24.2 mph 0.01 in   Overcast
2:53 AM 37.0 °F 27.0 °F 33.1 °F 86% 29.96 in 10.0 mi NNE 18.4 mph 25.3 mph 0.01 in   Overcast
3:12 AM 35.6 °F 25.2 °F 32.0 °F 87% 29.95 in 2.5 mi NNE 18.4 mph 28.8 mph 0.00 in Snow Light Snow
3:18 AM 35.6 °F 27.1 °F 33.8 °F 93% 29.95 in 3.0 mi NNE 12.7 mph 24.2 mph 0.01 in Snow Light Snow
3:40 AM 33.8 °F 23.2 °F 32.0 °F 93% 29.96 in 1.8 mi NNE 17.3 mph - 0.01 in Snow Light Snow
3:53 AM 33.1 °F 22.2 °F 30.9 °F 92% 30.00 in 0.8 mi NNE 17.3 mph - 0.01 in Snow Light Snow
4:17 AM 32.0 °F 20.5 °F 30.2 °F 93% 29.98 in 0.5 mi NNE 18.4 mph 25.3 mph 0.00 in Fog , Snow Snow
4:53 AM 30.0 °F 16.6 °F 28.9 °F 96% 30.05 in 0.5 mi NNE 23.0 mph 32.2 mph 0.00 in Fog Light Freezing Fog
5:49 AM 28.4 °F 16.2 °F 26.6 °F 93% 30.03 in 1.0 mi NNE 17.3 mph 28.8 mph 0.00 in Snow Light Snow
5:53 AM 28.9 °F 16.1 °F 27.0 °F 92% 30.08 in 1.0 mi NNE 19.6 mph 28.8 mph 0.00 in Snow Light Snow
5:58 AM 28.4 °F 15.8 °F 26.6 °F 93% 30.03 in 0.8 mi NNE 18.4 mph 26.5 mph 0.00 in Snow Light Snow
6:12 AM 28.4 °F 13.8 °F 26.6 °F 93% 30.03 in 0.8 mi NNE 25.3 mph 31.1 mph 0.00 in Snow Light Snow
6:19 AM 28.4 °F 15.1 °F 26.6 °F 93% 30.04 in 1.2 mi NNE 20.7 mph 31.1 mph 0.00 in Snow Light Snow
6:32 AM 28.4 °F 15.1 °F 26.6 °F 93% 30.04 in 1.0 mi NNE 20.7 mph 29.9 mph 0.00 in Snow Light Snow
6:41 AM 28.4 °F 15.4 °F 26.6 °F 93% 30.04 in 2.0 mi NNE 19.6 mph - 0.00 in Snow Light Snow
6:53 AM 28.0 °F 15.3 °F 26.1 °F 92% 30.12 in 2.5 mi NNE 18.4 mph 25.3 mph 0.00 in Snow Light Snow
7:04 AM 26.6 °F 12.4 °F 24.8 °F 93% 30.05 in 3.0 mi NNE 21.9 mph 29.9 mph 0.00 in Snow Light Snow
7:18 AM 28.4 °F 16.2 °F 24.8 °F 86% 30.06 in 4.0 mi NNE 17.3 mph - 0.00 in   Overcast
7:25 AM 26.6 °F 12.0 °F 24.8 °F 93% 30.06 in 6.0 mi NNE 23.0 mph 26.5 mph 0.00 in   Overcast
7:53 AM 27.0 °F 13.9 °F 23.0 °F 85% 30.15 in 8.0 mi NNE 18.4 mph - 0.00 in   Overcast
8:17 AM 26.6 °F 12.4 °F 23.0 °F 86% 30.07 in 9.0 mi NNE 21.9 mph 25.3 mph 0.00 in   Overcast
8:53 AM 26.1 °F 11.6 °F 21.9 °F 84% 30.16 in 4.0 mi NNE 21.9 mph 26.5 mph 0.00 in Snow Light Snow
9:53 AM 26.1 °F 11.3 °F 21.9 °F 84% 30.18 in 10.0 mi NNE 23.0 mph 31.1 mph 0.00 in   Overcast
10:53 AM 26.1 °F 11.3 °F 21.0 °F 81% 30.22 in 10.0 mi NNE 23.0 mph 29.9 mph 0.00 in   Overcast
11:12 AM 26.6 °F 12.7 °F 21.2 °F 80% 30.12 in 10.0 mi NNE 20.7 mph 28.8 mph 0.00 in   Overcast
11:53 AM 27.0 °F 12.8 °F 21.0 °F 78% 30.22 in 10.0 mi NNE 21.9 mph 28.8 mph 0.00 in   Overcast
12:53 PM 28.0 °F - 21.0 °F 75% 30.23 in - North - - 0.00 in   Unknown
1:53 PM 28.0 °F 14.6 °F 21.0 °F 75% 30.23 in 10.0 mi NE 20.7 mph 27.6 mph N/A   Unknown
2:07 PM 28.4 °F 15.4 °F 21.2 °F 74% 30.13 in 10.0 mi NNE 19.6 mph 26.5 mph N/A   Overcast
2:53 PM 30.0 °F 17.2 °F 21.0 °F 69% 30.22 in 10.0 mi NNE 20.7 mph 28.8 mph 0.01 in   Overcast
3:21 PM 30.2 °F 16.8 °F 21.2 °F 69% 30.13 in 10.0 mi NNE 23.0 mph 26.5 mph 0.01 in   Overcast
3:53 PM 32.0 °F 19.8 °F 21.0 °F 64% 30.23 in 10.0 mi North 20.7 mph 28.8 mph 0.01 in   Overcast
4:53 PM 32.0 °F 18.9 °F 19.9 °F 61% 30.26 in 10.0 mi North 24.2 mph 33.4 mph N/A   Overcast
6:53 PM 32.0 °F 20.8 °F 18.0 °F 56% 30.30 in 10.0 mi North 17.3 mph - N/A   Overcast
7:53 PM 32.0 °F 22.5 °F 17.1 °F 54% 30.32 in 10.0 mi North 12.7 mph 26.5 mph N/A   Overcast
8:53 PM 30.9 °F 23.5 °F 21.0 °F 67% 30.35 in 10.0 mi NNW 8.1 mph - N/A   Overcast
9:53 PM 30.9 °F 25.2 °F 19.9 °F 64% 30.37 in 10.0 mi North 5.8 mph - N/A   Overcast
10:53 PM 30.9 °F 23.5 °F 19.9 °F 64% 30.38 in 10.0 mi North 8.1 mph - N/A   Overcast
11:53 PM 30.0 °F 21.1 °F 19.0 °F 64% 30.39 in 10.0 mi North 10.4 mph - N/A   Overcast